Temp_Advection
nan nan nan nan nan nan nan nan nan nan nan nan nan nan nan nan nan nan nan nan nan nan nan nan nan nan nan nan nan nan nan nan nan nan nan nan nan nan nan nan nan nan nan nan
nan -0 -0 -0 -0 -0 -0 -0 -0 -0 0 -0 0 -0 -0 -0 -0 -1 -1 -2 -1 -1 -0 -1 -0 -0 -1 -0 -0 -0 -0 -0 0 0 0 -0 -0 -0 0 0 0 -0 0 nan
nan -0 -0 -0 -0 -0 0 -0 -0 0 -0 0 0 0 0 -0 0 0 -1 -1 -1 -1 -0 -1 -0 -0 -0 -0 -0 -0 0 0 0 0 0 0 -0 -0 0 0 -0 0 1 nan
nan -0 -0 -0 0 0 -0 -0 0 -0 -0 -0 -0 0 -0 0 0 -0 -0 0 -1 -0 -1 -1 -0 -1 -0 0 0 0 0 0 0 1 0 -0 -0 -0 1 1 0 0 1 nan
nan -0 0 0 -0 -0 -0 0 0 0 0 0 0 -0 -0 -0 -0 -0 -0 -1 -1 -1 -1 -0 -0 -0 1 0 0 0 1 1 1 0 0 0 0 1 1 0 0 1 1 nan
nan -0 -0 -0 -0 -0 -0 0 -1 -0 0 0 0 -0 -0 -0 -0 -0 0 -1 -2 -1 -1 -0 0 1 0 0 0 0 0 1 1 0 -0 -0 -0 1 2 0 0 1 1 nan
nan 0 -0 -0 -0 -0 -0 -0 -0 0 -0 -0 -0 -0 -1 -0 0 0 -0 -2 -1 0 0 0 0 -0 -0 0 0 1 0 0 0 0 0 0 0 2 1 -0 0 0 0 nan
nan -0 -0 0 0 0 0 -0 -0 0 0 -0 -0 -0 -0 0 0 -0 -1 -1 0 0 -0 -1 -0 0 1 0 0 0 0 0 1 1 0 1 0 2 1 -0 -0 0 0 nan
nan -0 -0 0 0 -0 -0 -0 -0 -0 0 0 -0 -0 -1 -0 0 -0 -0 0 -0 0 0 0 1 1 0 0 1 1 1 1 1 1 1 0 1 2 -1 -1 -0 0 1 nan
nan 0 -0 -0 0 0 -0 -0 -0 0 0 0 -0 -0 -0 -0 -0 0 -0 -0 -0 -0 -0 -0 0 0 -0 0 1 0 0 1 1 1 1 1 0 -1 -1 -0 1 1 0 nan
nan 0 0 -0 0 0 -0 -0 -0 -0 0 0 0 -0 -0 -0 -0 0 0 -0 -0 -0 -0 -0 0 -0 0 1 0 -0 0 1 1 1 1 -0 -0 -0 0 1 1 1 2 nan
nan 0 0 0 -0 0 -0 0 -0 0 0 -0 0 -1 -0 0 -0 -1 -0 -0 -0 -0 -0 0 0 -0 0 0 0 0 1 1 1 0 -0 0 0 0 1 2 2 2 2 nan
nan 0 0 -0 -0 -0 0 0 -0 -1 -0 -0 -0 -1 -0 0 -0 -0 -0 -0 -0 0 0 0 0 0 1 1 1 1 0 0 0 0 1 1 1 1 2 2 1 1 2 nan
nan -0 0 -0 -0 0 0 0 0 -1 -0 -0 -1 -1 -0 0 -0 -1 -1 -0 0 0 0 0 0 1 1 1 0 -0 0 1 1 1 1 2 2 1 1 1 1 1 1 nan
nan -0 -0 -0 -0 -0 -0 0 0 -0 -0 -0 -0 0 -0 0 0 -1 -1 -0 0 0 0 0 0 0 0 0 -0 0 1 1 1 1 2 2 1 1 1 1 1 1 1 nan
nan 0 0 0 0 0 0 0 -0 -0 -0 0 0 0 0 0 0 -0 0 0 -0 0 0 0 0 0 0 0 0 0 0 0 0 1 1 1 1 1 1 2 2 1 1 nan
nan 0 0 0 -0 -0 -0 -0 -0 0 0 0 0 0 0 0 0 0 0 0 0 0 1 0 -0 -0 -0 -0 0 0 0 0 1 1 1 1 1 2 2 1 1 0 -0 nan
nan -0 -0 0 0 -0 -0 0 0 0 0 0 0 0 0 -0 0 1 0 1 1 0 0 0 -0 -0 -0 -0 0 0 0 1 1 1 1 1 1 1 0 0 -0 -0 0 nan
nan -0 0 0 -0 -1 -0 0 0 -0 0 0 0 0 1 1 -1 -0 1 1 0 0 0 0 -0 -0 -0 -0 -0 0 0 1 1 1 1 1 0 0 -0 -0 0 0 0 nan
nan -0 -0 0 0 0 -0 -0 -0 -0 0 -0 -0 -0 -0 0 -0 -0 0 1 1 0 0 0 0 0 -0 -0 -0 0 0 0 0 0 0 0 0 0 -0 0 -0 0 -0 nan
nan 0 0 -0 0 -1 -1 -0 0 -0 -0 -1 -1 -2 -1 -0 -0 -1 0 0 0 0 0 0 0 0 -0 -0 0 0 -0 0 0 0 0 0 0 0 -0 -0 -0 -0 -0 nan
nan -1 -0 0 0 -1 -0 0 -0 -0 -0 -1 -1 -1 -1 -1 -1 0 0 0 0 0 0 1 0 -0 0 1 0 0 -0 -0 -0 -0 -0 -0 -0 -0 -0 -0 -0 0 -0 nan
nan -0 -0 -1 -1 -0 0 -0 -1 -0 -0 -0 -1 -1 -1 -1 -1 0 0 1 1 1 0 0 0 -0 0 0 0 -0 -0 -0 -0 -0 -0 0 0 0 0 -0 -0 -0 0 nan
nan 0 0 0 0 0 -0 -0 -0 0 0 -0 0 -0 0 -0 -0 -0 0 1 1 1 0 0 0 -0 -0 0 0 -0 -0 0 -0 -0 -0 -0 -0 -0 0 0 0 0 0 nan
nan -0 -0 0 -0 -0 -1 -1 -0 0 1 1 1 2 2 1 -0 0 0 0 0 0 0 0 0 -0 -0 0 0 -0 -0 -0 -0 -0 -0 -0 -0 -0 -0 -0 -0 -0 0 nan
nan nan nan nan nan nan nan nan nan nan nan nan nan nan nan nan nan nan nan nan nan nan nan nan nan nan nan nan nan nan nan nan nan nan nan nan nan nan nan nan nan nan nan nan
Wind_Speed
3 4 3 7 5 3 2 3 5 3 5 4 6 6 8 12 13 17 23 27 28 28 25 26 27 27 28 27 28 27 26 23 25 29 30 30 28 25 25 19 18 18 15 16
4 4 6 3 3 3 2 3 4 4 3 3 4 4 4 10 16 23 29 30 29 28 27 28 28 30 31 31 30 29 27 26 27 28 29 29 27 26 24 21 21 19 16 16
5 4 5 3 3 2 2 3 2 2 5 0 1 5 5 5 14 19 25 33 32 33 31 30 30 31 33 35 34 32 31 30 30 30 30 31 29 31 28 24 25 22 18 17
5 3 4 3 3 5 2 3 3 4 5 3 2 4 4 4 8 9 24 32 35 36 35 33 34 34 36 35 33 31 29 30 31 32 33 34 32 34 29 23 23 19 19 18
6 3 4 4 5 5 6 1 1 1 3 1 1 3 7 2 6 12 19 32 38 39 37 36 38 38 38 35 34 31 31 34 34 35 35 35 33 33 27 23 20 20 22 22
4 2 4 6 3 6 2 3 5 4 3 1 3 5 5 4 7 5 13 26 37 41 42 40 39 38 37 38 37 36 35 35 35 37 37 36 33 32 29 25 22 22 23 23
2 3 2 4 2 3 2 5 3 4 3 4 2 2 9 5 6 7 10 30 41 45 43 43 42 42 41 40 40 39 38 38 37 36 38 38 37 33 27 24 21 22 24 25
6 5 5 4 5 7 3 6 5 2 2 3 1 4 5 3 5 12 15 17 29 37 41 44 44 43 42 42 41 38 38 39 37 38 35 39 41 35 29 26 22 20 23 27
5 5 3 2 0 4 3 2 4 6 3 2 3 6 10 4 3 7 5 7 16 26 36 41 43 43 42 42 41 37 34 40 40 39 37 39 36 36 30 25 24 24 27 30
8 1 2 2 2 2 3 6 3 3 2 3 4 4 5 7 4 3 4 2 5 12 21 30 36 40 40 39 39 34 34 31 34 39 39 40 34 35 28 25 26 28 28 33
5 5 3 1 4 6 2 1 4 5 4 4 1 5 7 6 4 5 5 2 3 8 13 17 22 26 30 32 32 30 34 33 31 31 34 33 31 28 25 24 26 27 28 32
6 5 5 9 1 2 4 7 6 4 4 1 3 6 4 7 6 7 7 4 2 5 9 11 12 13 15 19 25 29 33 32 28 28 25 25 25 25 25 28 26 27 27 26
7 1 1 7 5 2 3 5 4 5 4 6 5 6 2 5 6 6 10 7 6 10 12 14 16 18 20 22 25 26 21 18 19 22 24 24 26 26 23 22 22 20 22 19
10 4 8 9 8 5 4 5 5 6 4 5 6 6 7 6 6 9 10 10 11 12 15 16 17 18 19 22 23 20 19 19 20 21 24 27 25 21 20 20 20 19 18 14
6 8 6 3 3 5 5 5 8 6 6 6 7 7 9 5 5 9 11 6 6 9 10 14 15 14 17 18 19 20 21 21 22 24 23 21 21 21 20 19 18 19 20 17
2 4 3 3 3 1 4 4 7 4 3 5 4 6 6 2 2 6 5 9 14 13 10 4 1 5 8 12 15 18 18 17 17 17 16 18 20 19 20 19 19 18 15 14
8 7 3 4 3 3 5 8 7 6 5 7 7 10 6 2 6 6 10 13 14 13 11 10 10 7 5 4 5 8 10 12 14 15 16 17 18 19 16 14 14 11 7 11
7 7 3 3 3 2 6 2 3 8 6 5 4 4 6 11 13 12 10 12 15 14 13 12 10 9 6 3 2 4 7 10 12 14 14 16 17 17 16 9 3 14 20 26
1 6 3 5 4 5 3 5 7 7 9 6 5 6 14 21 15 10 9 11 12 11 11 9 7 5 3 2 1 3 6 8 9 12 16 17 15 10 4 7 17 24 15 10
6 6 5 3 5 8 8 5 8 5 5 8 11 9 14 14 4 3 8 9 10 8 7 6 6 6 5 5 4 4 8 9 14 16 14 10 4 5 15 18 7 9 13 16
3 3 5 3 3 7 7 4 11 5 8 18 26 26 21 5 4 17 13 11 9 8 8 9 10 10 11 12 9 12 13 12 10 6 3 9 11 10 7 9 12 15 17 20
7 7 3 3 3 7 11 6 9 7 3 28 31 30 20 11 16 19 15 13 12 13 14 15 17 18 18 15 11 14 10 6 0 4 5 4 4 7 9 12 14 17 20 23
3 6 6 9 7 4 16 6 16 6 10 27 29 24 23 22 22 20 19 17 17 17 18 17 17 19 16 12 8 7 7 5 3 2 2 4 7 10 13 16 19 22 24 28
3 4 4 4 5 5 11 16 14 15 20 28 27 26 25 24 24 23 22 22 21 20 19 17 15 14 14 10 7 6 5 2 2 4 7 9 13 16 18 21 24 27 29 31
4 8 6 3 4 2 12 17 18 20 23 24 25 25 24 25 26 25 25 23 22 20 17 14 12 12 11 7 5 4 2 3 5 8 11 15 19 22 25 27 29 30 30 30
7 7 6 8 16 14 11 22 22 26 27 28 29 26 23 24 26 26 25 23 21 19 16 14 12 9 9 5 3 1 3 7 10 13 17 20 24 26 27 30 33 32 33 33
Wind_Direction
11 76 204 213 176 180 192 213 217 274 267 226 238 214 197 189 193 177 191 197 204 212 211 213 213 215 214 211 209 209 209 205 205 205 205 212 218 227 222 221 224 224 241 244
26 232 227 228 191 186 231 194 240 267 281 127 340 265 187 175 212 197 195 202 210 216 217 216 212 214 217 218 216 215 217 216 215 213 215 221 232 235 232 224 227 234 247 243
172 226 126 217 229 152 271 202 235 211 347 93 352 306 191 213 203 210 213 213 210 213 215 217 217 216 216 219 217 217 218 218 220 222 223 229 235 237 235 221 227 239 240 233
232 259 185 218 240 123 290 217 289 14 49 268 84 285 277 229 213 209 215 214 216 217 220 217 219 220 221 220 221 223 223 223 225 227 228 230 238 239 241 236 240 242 235 223
243 177 192 193 223 162 223 179 208 162 154 51 301 100 274 126 243 233 224 217 219 221 221 223 224 224 225 225 225 227 229 228 229 231 232 234 239 243 244 240 243 247 227 217
247 208 183 216 151 203 205 150 55 48 88 101 238 140 282 212 216 243 225 223 223 223 225 229 233 234 232 230 229 229 232 235 236 237 237 238 246 253 246 236 244 240 224 222
301 233 246 190 96 34 109 65 347 355 16 220 33 57 238 290 282 247 222 219 226 227 227 228 230 232 233 232 232 231 233 236 239 236 239 240 243 253 246 239 246 237 230 227
172 300 195 183 179 179 170 138 154 253 195 266 316 232 257 210 299 309 263 248 233 228 230 231 232 232 233 234 235 234 235 237 243 240 240 240 242 248 245 241 236 241 242 233
154 267 279 169 59 154 164 139 167 104 12 56 256 293 306 349 317 349 10 197 218 230 231 232 233 234 233 236 237 236 240 242 244 246 244 246 244 245 252 235 235 238 241 236
203 163 282 236 159 261 144 158 81 24 171 255 298 288 243 319 330 301 316 296 224 227 230 233 236 236 236 240 241 238 238 248 253 248 247 248 251 252 257 245 246 244 250 259
138 138 247 249 196 194 112 155 70 119 138 179 233 262 215 241 271 323 331 301 204 224 230 233 238 241 243 244 246 245 241 246 249 250 249 250 255 259 253 260 258 258 252 247
193 151 197 209 250 145 181 194 154 136 209 157 168 270 257 248 266 263 290 297 261 201 194 198 203 215 228 237 242 244 243 247 252 253 249 250 251 254 252 259 248 243 247 238
182 189 111 337 359 12 206 194 139 109 88 186 142 261 295 288 284 284 269 266 234 220 221 220 218 219 218 220 227 237 245 252 254 256 252 257 253 250 255 243 239 244 223 224
137 147 168 209 214 154 197 196 174 145 127 176 218 264 289 310 303 293 276 275 259 240 233 238 240 239 238 239 241 251 258 260 264 255 254 249 249 245 227 234 229 225 227 222
144 201 188 223 200 178 207 194 180 169 189 168 245 208 256 250 275 291 298 254 223 239 242 252 260 262 259 258 258 259 257 254 257 262 256 245 230 221 226 216 221 210 225 239
175 211 163 156 118 154 220 236 190 214 170 262 242 264 218 223 167 66 104 101 94 93 88 85 234 264 270 275 277 277 276 275 275 259 246 225 222 219 216 217 208 208 190 188
157 137 118 219 23 37 336 223 200 209 196 181 200 223 158 151 112 87 101 105 96 87 81 74 69 62 39 351 302 281 269 255 239 224 212 211 203 201 192 180 176 184 212 269
143 116 94 165 51 251 244 309 224 213 234 228 277 223 167 144 115 104 106 103 97 93 89 84 74 59 43 19 297 241 223 216 208 200 200 192 186 170 155 160 213 310 302 295
87 125 100 142 186 294 258 211 168 176 258 193 188 142 139 137 110 70 103 114 108 100 90 80 77 69 65 57 102 206 185 185 183 172 168 160 159 161 203 311 304 291 299 290
79 58 125 143 151 214 233 240 165 110 271 178 159 167 158 162 124 193 149 131 117 106 100 101 109 107 106 99 111 140 135 146 146 151 154 166 212 259 294 300 310 304 303 299
74 36 151 117 197 283 244 211 149 132 238 173 172 170 169 164 159 152 153 138 125 117 119 119 119 116 109 109 120 122 127 129 135 153 255 281 301 320 322 315 313 308 304 300
156 141 171 85 74 278 175 121 172 214 213 181 177 176 170 154 147 152 151 140 137 135 128 127 124 116 114 117 126 123 124 111 40 311 346 8 336 318 312 307 303 302 303 302
202 181 179 180 209 207 187 219 215 240 200 181 178 181 184 165 161 159 153 149 144 140 136 132 129 128 126 128 126 121 103 96 83 50 350 319 311 307 308 309 309 307 304 304
228 157 150 110 217 221 230 231 228 204 193 180 181 178 179 171 166 162 158 152 148 145 142 139 137 130 124 122 117 100 98 73 357 330 321 316 312 310 309 309 310 310 311 310
194 136 152 283 279 271 245 224 209 189 184 176 176 179 178 174 167 168 159 156 153 150 147 149 143 134 125 124 116 101 62 344 327 323 319 317 317 318 318 318 319 318 318 318
194 169 164 214 198 182 199 195 184 179 175 179 178 170 172 176 170 168 159 158 157 155 152 148 139 136 129 123 105 36 335 327 326 326 325 326 326 326 325 324 323 324 325 324
Height
1493 1497 1503 1496 1493 1494 1496 1498 1499 1494 1488 1491 1490 1491 1492 1495 1497 1499 1500 1501 1504 1504 1509 1513 1517 1519 1522 1524 1527 1529 1532 1535 1538 1540 1542 1546 1548 1550 1553 1555 1558 1560 1561 1561
1497 1500 1491 1491 1489 1492 1493 1498 1498 1490 1491 1488 1492 1493 1488 1491 1491 1492 1495 1496 1498 1502 1506 1509 1513 1515 1517 1520 1523 1526 1529 1533 1535 1538 1540 1544 1546 1548 1550 1552 1554 1556 1557 1558
1499 1491 1487 1492 1489 1491 1492 1495 1492 1492 1490 1488 1489 1493 1488 1487 1488 1492 1493 1492 1494 1495 1500 1504 1506 1510 1514 1516 1519 1522 1525 1529 1532 1534 1537 1540 1542 1544 1545 1547 1551 1553 1553 1554
1493 1487 1487 1490 1490 1490 1497 1488 1488 1490 1497 1510 1493 1512 1490 1487 1486 1486 1486 1489 1489 1492 1495 1499 1503 1505 1507 1511 1516 1520 1524 1526 1529 1532 1534 1534 1537 1539 1541 1544 1549 1549 1549 1550
1491 1487 1489 1490 1489 1486 1493 1486 1488 1490 1500 1501 1500 1510 1492 1486 1487 1482 1478 1479 1483 1486 1489 1493 1496 1498 1504 1510 1513 1516 1519 1522 1525 1528 1530 1532 1533 1536 1539 1543 1544 1545 1547 1549
1486 1483 1484 1484 1483 1483 1482 1487 1494 1499 1504 1514 1498 1506 1499 1488 1477 1471 1471 1474 1476 1480 1484 1488 1492 1497 1501 1506 1509 1513 1515 1518 1521 1523 1526 1529 1531 1532 1535 1538 1540 1541 1543 1545
1486 1485 1480 1480 1483 1483 1486 1495 1517 1523 1524 1517 1499 1505 1493 1475 1471 1468 1466 1465 1468 1472 1477 1482 1486 1489 1494 1499 1503 1508 1512 1514 1517 1520 1523 1525 1527 1528 1530 1533 1535 1537 1538 1540
1496 1500 1482 1477 1479 1486 1485 1493 1517 1512 1528 1513 1499 1505 1484 1468 1467 1463 1460 1462 1465 1468 1471 1476 1479 1483 1488 1493 1497 1503 1507 1510 1513 1515 1518 1520 1522 1523 1526 1527 1530 1532 1534 1535
1494 1490 1476 1476 1476 1480 1487 1495 1492 1514 1522 1529 1507 1492 1475 1467 1464 1464 1462 1461 1462 1463 1466 1470 1474 1479 1484 1488 1492 1498 1503 1506 1509 1511 1514 1515 1517 1519 1520 1522 1524 1525 1527 1528
1478 1486 1479 1476 1475 1476 1479 1484 1500 1511 1512 1512 1507 1500 1494 1473 1469 1467 1464 1462 1464 1464 1465 1469 1472 1476 1480 1485 1489 1496 1499 1501 1504 1506 1508 1511 1512 1514 1516 1517 1518 1519 1521 1521
1471 1478 1484 1479 1478 1479 1485 1488 1493 1498 1512 1515 1523 1504 1476 1470 1466 1465 1463 1463 1464 1464 1465 1467 1470 1474 1478 1483 1487 1491 1494 1496 1499 1501 1504 1506 1508 1510 1511 1513 1514 1515 1516 1518
1466 1477 1490 1480 1470 1470 1474 1480 1485 1507 1503 1514 1521 1502 1466 1464 1464 1464 1462 1462 1463 1465 1466 1468 1470 1473 1476 1480 1483 1485 1489 1493 1496 1498 1500 1502 1504 1506 1507 1508 1508 1511 1515 1516
1463 1479 1492 1486 1479 1473 1474 1474 1477 1488 1498 1505 1520 1498 1465 1463 1462 1461 1461 1462 1463 1464 1465 1467 1469 1471 1473 1476 1480 1484 1489 1491 1493 1495 1496 1497 1499 1500 1502 1504 1508 1510 1512 1515
1453 1469 1474 1483 1476 1471 1476 1472 1474 1479 1502 1495 1498 1480 1468 1465 1465 1461 1460 1460 1461 1462 1463 1465 1467 1470 1472 1475 1478 1482 1484 1486 1488 1489 1491 1492 1494 1497 1500 1504 1505 1508 1511 1513
1452 1466 1466 1462 1460 1463 1464 1467 1473 1472 1474 1483 1475 1481 1468 1464 1463 1460 1459 1458 1458 1460 1461 1463 1465 1469 1471 1473 1475 1477 1479 1481 1483 1484 1485 1488 1492 1497 1499 1501 1503 1505 1505 1507
1451 1461 1459 1463 1463 1463 1463 1462 1468 1467 1467 1470 1470 1471 1460 1460 1460 1459 1459 1460 1459 1461 1462 1463 1464 1466 1468 1470 1473 1475 1477 1479 1480 1482 1485 1488 1492 1494 1495 1498 1501 1501 1502 1506
1449 1458 1470 1469 1470 1468 1482 1464 1462 1460 1459 1459 1470 1460 1458 1460 1460 1461 1461 1461 1462 1463 1464 1465 1466 1467 1468 1469 1471 1473 1475 1477 1478 1481 1484 1487 1490 1493 1496 1498 1500 1501 1502 1504
1448 1455 1470 1484 1482 1490 1455 1451 1450 1454 1452 1452 1453 1453 1452 1456 1460 1462 1462 1463 1463 1464 1466 1467 1468 1468 1469 1471 1472 1473 1474 1476 1479 1481 1485 1488 1491 1494 1496 1498 1500 1501 1500 1497
1439 1450 1472 1477 1482 1466 1451 1451 1452 1451 1450 1446 1450 1453 1454 1457 1458 1463 1463 1464 1465 1466 1467 1468 1469 1470 1471 1472 1473 1474 1476 1479 1482 1485 1488 1491 1493 1494 1496 1497 1497 1495 1495 1494
1439 1444 1454 1482 1479 1481 1452 1439 1439 1441 1456 1441 1443 1449 1452 1456 1463 1464 1464 1465 1465 1466 1468 1469 1470 1471 1473 1474 1476 1478 1480 1482 1485 1488 1490 1492 1494 1494 1495 1494 1493 1493 1492 1491
1454 1459 1464 1487 1479 1462 1438 1436 1439 1457 1450 1432 1436 1443 1448 1452 1454 1457 1462 1464 1465 1467 1469 1470 1472 1473 1475 1477 1480 1481 1483 1486 1489 1490 1491 1492 1492 1493 1493 1493 1491 1490 1489 1486
1436 1453 1468 1477 1480 1459 1429 1437 1444 1431 1426 1428 1434 1438 1444 1448 1452 1456 1460 1462 1465 1467 1470 1472 1473 1475 1479 1482 1483 1484 1486 1488 1489 1490 1490 1491 1491 1491 1490 1489 1488 1486 1483 1480
1432 1426 1439 1442 1438 1423 1425 1424 1424 1424 1424 1427 1431 1437 1442 1445 1450 1455 1459 1462 1466 1469 1471 1474 1475 1478 1481 1483 1485 1486 1487 1488 1489 1489 1489 1489 1489 1488 1487 1485 1483 1481 1478 1474
1420 1419 1425 1430 1422 1421 1421 1421 1421 1421 1422 1426 1430 1435 1439 1442 1448 1453 1458 1463 1466 1470 1473 1475 1477 1479 1481 1484 1485 1486 1487 1488 1488 1488 1487 1487 1486 1485 1483 1481 1478 1475 1472 1468
1411 1415 1421 1424 1420 1420 1418 1417 1417 1418 1422 1426 1430 1434 1438 1442 1447 1452 1457 1463 1467 1470 1473 1476 1478 1480 1482 1484 1484 1485 1486 1486 1486 1485 1485 1483 1481 1479 1477 1474 1471 1468 1466 1463
1402 1405 1413 1411 1397 1401 1403 1409 1415 1417 1419 1424 1427 1433 1438 1442 1445 1452 1457 1463 1466 1470 1473 1476 1478 1480 1481 1482 1483 1484 1484 1484 1483 1482 1481 1479 1476 1474 1471 1467 1463 1462 1458 1454